M I D A S
Marine Information and Data Acquisition System
Tripno 2289 of the Zeeleeuw from 2012-04-12 07:18:30 to 2012-04-12 14:09:51
Back to CruiseResearch ActivitiesStationsMapUnderway DataData graphs

EquipmentUnitsComment
TimeDGPSUTC
LatitudeDGPSDM.mWGS84
LongitudeDGPSDM.mWGS84
HeadingGyrodeg 
SOGDGPSknotsSpeed over ground
COGDGPSdegCourse over ground
DepthEcho soundermeters200 kHz
Missing or incorrect values are displayed as -999
Navigation data collected by the RV Zeeleeuw from 2012-04-12 06:46:42 to 2012-04-12 14:20:17
                                                                                    Next 1000 lines
Time Latitude Longitude Heading SOG COG Depth
2012-04-12 06:46:53 51°13.638 2°56.02 126.1 -999 335 -999
2012-04-12 06:46:58 51°13.638 2°56.02 126.1 0.3 338 -999
2012-04-12 06:47:03 51°13.638 2°56.02 126.1 0.1 338 -999
2012-04-12 06:47:08 51°13.638 2°56.02 126.1 0.2 150 -999
2012-04-12 06:47:13 51°13.638 2°56.02 126.1 -999 139 -999
2012-04-12 06:47:18 51°13.638 2°56.02 126.1 0.1 343 -999
2012-04-12 06:47:22 51°13.637 2°56.02 126.1 -999 339 -999
2012-04-12 06:47:28 51°13.637 2°56.02 126.1 0.2 165 -999
2012-04-12 06:47:33 51°13.637 2°56.02 126.1 -999 322 -999
2012-04-12 06:47:37 51°13.637 2°56.021 126.1 0.1 156 -999
2012-04-12 06:47:42 51°13.637 2°56.021 126.1 0.2 155 -999
2012-04-12 06:47:47 51°13.637 2°56.021 126.1 -999 123 -999
2012-04-12 06:47:52 51°13.637 2°56.022 126.1 0.1 155 -999
2012-04-12 06:47:57 51°13.637 2°56.022 126.1 0.3 156 -999
2012-04-12 06:48:02 51°13.637 2°56.021 126.1 -999 126 -999
2012-04-12 06:48:08 51°13.637 2°56.022 126.1 -999 20 -999
2012-04-12 06:48:13 51°13.637 2°56.022 126.1 -999 21 -999
2012-04-12 06:48:18 51°13.637 2°56.022 126.1 0.1 333 -999
2012-04-12 06:48:23 51°13.636 2°56.022 126.1 0.1 144 -999
2012-04-12 06:48:28 51°13.636 2°56.023 126.1 0.2 149 -999
2012-04-12 06:48:32 51°13.637 2°56.022 126.1 0.1 337 -999
2012-04-12 06:48:37 51°13.637 2°56.022 126.1 0.2 334 -999
2012-04-12 06:48:42 51°13.636 2°56.023 126.1 0.1 149 -999
2012-04-12 06:48:47 51°13.637 2°56.023 126.2 0.1 345 -999
2012-04-12 06:48:52 51°13.636 2°56.023 126.2 -999 99 -999
2012-04-12 06:48:58 51°13.637 2°56.023 126.3 -999 359 -999
2012-04-12 06:49:03 51°13.636 2°56.023 126.3 -999 296 -999
2012-04-12 06:49:08 51°13.636 2°56.023 -999 0.2 153 -999
2012-04-12 06:49:12 51°13.636 2°56.023 126.4 -999 140 -999
2012-04-12 06:49:17 51°13.637 2°56.023 126.4 0.1 329 -999
2012-04-12 06:49:22 51°13.636 2°56.023 126.4 -999 91 -999
2012-04-12 06:49:27 51°13.637 2°56.023 126.4 0.1 340 -999
2012-04-12 06:49:32 51°13.637 2°56.023 126.4 0.2 336 -999
2012-04-12 06:49:37 51°13.636 2°56.023 126.4 -999 343 -999
2012-04-12 06:49:42 51°13.636 2°56.023 126.4 -999 166 -999
2012-04-12 06:49:47 51°13.636 2°56.023 126.4 -999 296 -999
2012-04-12 06:49:52 51°13.636 2°56.023 126.4 -999 151 -999
2012-04-12 06:49:57 51°13.636 2°56.023 126.4 -999 129 -999
2012-04-12 06:50:03 51°13.636 2°56.023 126.4 0.1 150 -999
2012-04-12 06:50:08 51°13.636 2°56.023 126.4 0.1 340 -999
2012-04-12 06:50:13 51°13.635 2°56.023 126.4 -999 199 -999
2012-04-12 06:50:18 51°13.635 2°56.022 126.4 0.3 157 -999
2012-04-12 06:50:23 51°13.635 2°56.022 126.4 0.1 336 -999
2012-04-12 06:50:28 51°13.635 2°56.022 126.4 0.2 337 -999
2012-04-12 06:50:33 51°13.635 2°56.022 126.4 -999 124 -999
2012-04-12 06:50:37 51°13.635 2°56.022 126.4 0.2 152 -999
2012-04-12 06:50:42 51°13.635 2°56.023 126.4 0.2 152 -999
2012-04-12 06:50:47 51°13.636 2°56.022 126.4 0.2 146 -999
2012-04-12 06:50:53 51°13.636 2°56.022 126.4 0.1 100 -999
2012-04-12 06:50:57 51°13.636 2°56.022 126.4 -999 106 -999
2012-04-12 06:51:02 51°13.636 2°56.022 126.4 -999 73 -999
2012-04-12 06:51:07 51°13.636 2°56.022 126.4 0.1 341 -999
2012-04-12 06:51:13 51°13.635 2°56.021 126.4 0.2 338 -999
2012-04-12 06:51:17 51°13.635 2°56.021 126.4 -999 72 -999
2012-04-12 06:51:22 51°13.635 2°56.021 126.4 -999 359 -999
2012-04-12 06:51:27 51°13.635 2°56.021 126.4 0.1 334 -999
2012-04-12 06:51:32 51°13.635 2°56.021 126.4 0.1 339 -999
2012-04-12 06:51:37 51°13.635 2°56.021 126.4 -999 142 -999
2012-04-12 06:51:42 51°13.635 2°56.021 126.4 -999 91 -999
2012-04-12 06:51:47 51°13.635 2°56.021 126.4 -999 355 -999
2012-04-12 06:51:53 51°13.635 2°56.021 126.4 0.1 133 -999
2012-04-12 06:51:58 51°13.635 2°56.021 126.4 0.1 150 -999
2012-04-12 06:52:02 51°13.635 2°56.021 126.4 0.2 155 -999
2012-04-12 06:52:08 51°13.635 2°56.021 126.4 0.1 154 -999
2012-04-12 06:52:13 51°13.635 2°56.021 126.4 -999 302 -999
2012-04-12 06:52:18 51°13.635 2°56.021 126.4 0.1 146 -999
2012-04-12 06:52:22 51°13.635 2°56.021 126.4 0.2 152 -999
2012-04-12 06:52:28 51°13.635 2°56.021 126.4 0.2 149 -999
2012-04-12 06:52:33 51°13.635 2°56.02 126.4 0.2 340 -999
2012-04-12 06:52:38 51°13.635 2°56.021 126.4 -999 118 -999
2012-04-12 06:52:42 51°13.635 2°56.021 126.4 0.1 116 -999
2012-04-12 06:52:48 51°13.636 2°56.021 126.4 -999 341 -999
2012-04-12 06:52:53 51°13.636 2°56.021 126.4 -999 302 -999
2012-04-12 06:52:58 51°13.636 2°56.021 126.4 -999 157 -999
2012-04-12 06:53:02 51°13.635 2°56.021 126.4 0.1 152 -999
2012-04-12 06:53:07 51°13.635 2°56.021 126.5 0.1 144 -999
2012-04-12 06:53:13 51°13.636 2°56.021 126.5 -999 65 -999
2012-04-12 06:53:18 51°13.635 2°56.021 126.5 -999 153 -999
2012-04-12 06:53:22 51°13.635 2°56.021 126.5 0.2 151 -999
2012-04-12 06:53:27 51°13.635 2°56.021 126.5 0.1 144 -999
2012-04-12 06:53:32 51°13.635 2°56.021 126.5 -999 127 -999
2012-04-12 06:53:37 51°13.635 2°56.021 126.5 -999 161 -999
2012-04-12 06:53:42 51°13.635 2°56.021 126.5 -999 189 -999
2012-04-12 06:53:47 51°13.635 2°56.021 126.5 -999 321 -999
2012-04-12 06:53:52 51°13.636 2°56.021 126.5 0.1 309 -999
2012-04-12 06:53:58 51°13.635 2°56.021 126.5 -999 324 -999
2012-04-12 06:54:03 51°13.635 2°56.021 126.6 -999 203 -999
2012-04-12 06:54:07 51°13.635 2°56.021 126.6 -999 262 -999
2012-04-12 06:54:12 51°13.635 2°56.021 126.7 0.1 148 -999
2012-04-12 06:54:18 51°13.635 2°56.02 126.7 0.1 340 -999
2012-04-12 06:54:23 51°13.635 2°56.02 126.7 -999 343 -999
2012-04-12 06:54:27 51°13.635 2°56.02 126.7 0.1 341 -999
2012-04-12 06:54:32 51°13.636 2°56.02 126.7 0.1 344 -999
2012-04-12 06:54:37 51°13.635 2°56.02 126.7 -999 317 -999
2012-04-12 06:54:43 51°13.635 2°56.021 126.7 0.1 156 -999
2012-04-12 06:54:47 51°13.635 2°56.021 126.6 0.2 159 -999
2012-04-12 06:54:52 51°13.635 2°56.021 126.6 0.2 146 -999
2012-04-12 06:54:58 51°13.635 2°56.021 126.6 0.2 156 -999
2012-04-12 06:55:03 51°13.636 2°56.02 126.6 0.1 331 -999
2012-04-12 06:55:07 51°13.636 2°56.02 126.6 0.2 335 -999
2012-04-12 06:55:13 51°13.636 2°56.021 126.6 0.1 326 -999
2012-04-12 06:55:18 51°13.636 2°56.021 126.7 -999 302 -999
2012-04-12 06:55:22 51°13.636 2°56.021 126.7 -999 339 -999
2012-04-12 06:55:27 51°13.636 2°56.021 126.7 -999 341 -999
2012-04-12 06:55:32 51°13.636 2°56.021 126.7 -999 343 -999
2012-04-12 06:55:38 51°13.636 2°56.021 126.7 -999 348 -999
2012-04-12 06:55:42 51°13.636 2°56.021 126.7 -999 54 -999
2012-04-12 06:55:47 51°13.636 2°56.021 126.7 -999 6 -999
2012-04-12 06:55:52 51°13.636 2°56.021 126.7 -999 122 -999
2012-04-12 06:55:58 51°13.636 2°56.021 126.7 0.1 345 -999
2012-04-12 06:56:03 51°13.636 2°56.021 126.7 -999 348 -999
2012-04-12 06:56:07 51°13.636 2°56.021 126.7 -999 111 -999
2012-04-12 06:56:12 51°13.635 2°56.021 126.7 -999 149 -999
2012-04-12 06:56:17 51°13.635 2°56.021 126.7 -999 310 -999
2012-04-12 06:56:22 51°13.636 2°56.021 126.7 0.1 330 -999
2012-04-12 06:56:27 51°13.636 2°56.021 126.7 0.1 332 -999
2012-04-12 06:56:32 51°13.636 2°56.021 126.7 0.1 321 -999
2012-04-12 06:56:38 51°13.636 2°56.021 126.7 -999 293 -999
2012-04-12 06:56:42 51°13.636 2°56.02 126.7 0.1 336 -999
2012-04-12 06:56:48 51°13.636 2°56.02 126.7 0.1 336 -999
2012-04-12 06:56:52 51°13.636 2°56.02 126.7 0.1 334 -999
2012-04-12 06:56:57 51°13.637 2°56.02 126.7 0.1 326 -999
2012-04-12 06:57:02 51°13.636 2°56.021 126.7 -999 267 -999
2012-04-12 06:57:07 51°13.636 2°56.021 126.7 0.1 313 -999
2012-04-12 06:57:12 51°13.636 2°56.021 126.7 0.1 206 -999
2012-04-12 06:57:17 51°13.635 2°56.021 126.7 0.2 149 -999
2012-04-12 06:57:22 51°13.636 2°56.021 126.7 0.2 302 -999
2012-04-12 06:57:27 51°13.636 2°56.021 126.7 -999 276 -999
2012-04-12 06:57:33 51°13.635 2°56.022 126.7 -999 305 -999
2012-04-12 06:57:37 51°13.635 2°56.022 126.7 0.1 266 -999
2012-04-12 06:57:42 51°13.635 2°56.022 126.7 -999 47 -999
2012-04-12 06:57:47 51°13.635 2°56.022 126.7 -999 251 -999
2012-04-12 06:57:53 51°13.636 2°56.022 126.7 0.2 354 -999
2012-04-12 06:57:58 51°13.636 2°56.021 126.7 0.1 96 -999
2012-04-12 06:58:02 51°13.636 2°56.021 126.7 0.1 150 -999
2012-04-12 06:58:08 51°13.636 2°56.021 126.7 0.1 351 -999
2012-04-12 06:58:13 51°13.636 2°56.021 126.7 0.1 356 -999
2012-04-12 06:58:18 51°13.636 2°56.021 126.7 0.1 349 -999
2012-04-12 06:58:22 51°13.636 2°56.021 126.7 -999 11 -999
2012-04-12 06:58:27 51°13.636 2°56.021 126.7 0.1 6 -999
2012-04-12 06:58:32 51°13.636 2°56.021 126.7 0.1 8 -999
2012-04-12 06:58:38 51°13.636 2°56.021 126.7 0.1 341 -999
2012-04-12 06:58:42 51°13.636 2°56.021 126.7 -999 7 -999
2012-04-12 06:58:47 51°13.636 2°56.021 126.8 0.1 150 -999
2012-04-12 06:58:52 51°13.636 2°56.021 126.8 -999 168 -999
2012-04-12 06:58:57 51°13.636 2°56.021 126.8 0.1 147 -999
2012-04-12 06:59:03 51°13.636 2°56.02 126.9 -999 139 -999
2012-04-12 06:59:06 51°13.636 2°56.02 127 -999 354 -999
2012-04-12 06:59:12 51°13.636 2°56.02 127.1 -999 357 -999
2012-04-12 06:59:18 51°13.636 2°56.02 127.2 -999 353 -999
2012-04-12 06:59:22 51°13.636 2°56.02 127.2 0.1 328 -999
2012-04-12 06:59:27 51°13.636 2°56.02 127.3 0.1 338 -999
2012-04-12 06:59:32 51°13.637 2°56.02 127.3 0.2 350 -999
2012-04-12 06:59:37 51°13.636 2°56.02 127.3 0.1 358 -999
2012-04-12 06:59:42 51°13.636 2°56.02 127.2 -999 65 -999
2012-04-12 06:59:47 51°13.636 2°56.02 127.1 -999 126 -999
2012-04-12 06:59:52 51°13.636 2°56.02 127 0.1 158 -999
2012-04-12 06:59:57 51°13.637 2°56.02 126.9 0.2 5 -999
2012-04-12 07:00:03 51°13.636 2°56.02 126.7 0.1 290 -999
2012-04-12 07:00:08 51°13.636 2°56.02 126.6 0.1 163 -999
2012-04-12 07:00:12 51°13.636 2°56.02 126.6 0.1 204 -999
2012-04-12 07:00:18 51°13.636 2°56.02 126.6 -999 316 -999
2012-04-12 07:00:23 51°13.636 2°56.02 126.6 -999 252 -999
2012-04-12 07:00:28 51°13.636 2°56.02 126.6 0.1 191 -999
2012-04-12 07:00:32 51°13.636 2°56.02 126.6 0.1 169 -999
2012-04-12 07:00:38 51°13.636 2°56.02 126.6 0.1 177 -999
2012-04-12 07:00:43 51°13.636 2°56.02 126.6 0.1 211 -999
2012-04-12 07:00:47 51°13.636 2°56.02 126.5 0.2 353 -999
2012-04-12 07:00:52 51°13.636 2°56.02 126.4 0.1 34 -999
2012-04-12 07:00:57 51°13.636 2°56.02 126.4 0.1 132 -999
2012-04-12 07:01:03 51°13.636 2°56.019 126.4 0.2 286 -999
2012-04-12 07:01:07 51°13.636 2°56.02 126.4 0.1 307 -999
2012-04-12 07:01:12 51°13.636 2°56.02 126.4 0.1 344 -999
2012-04-12 07:01:17 51°13.636 2°56.02 126.4 0.1 320 -999
2012-04-12 07:01:22 51°13.636 2°56.02 126.4 0.1 166 -999
2012-04-12 07:01:28 51°13.636 2°56.02 126.4 0.1 357 -999
2012-04-12 07:01:33 51°13.636 2°56.02 126.4 -999 266 -999
2012-04-12 07:01:37 51°13.636 2°56.02 126.4 0.1 354 -999
2012-04-12 07:01:42 51°13.636 2°56.02 126.4 0.1 339 -999
2012-04-12 07:01:47 51°13.636 2°56.02 126.5 -999 173 -999
2012-04-12 07:01:52 51°13.636 2°56.02 126.6 -999 276 -999
2012-04-12 07:01:57 51°13.636 2°56.02 126.6 -999 259 -999
2012-04-12 07:02:02 51°13.635 2°56.02 126.6 0.1 180 -999
2012-04-12 07:02:07 51°13.635 2°56.02 126.6 -999 149 -999
2012-04-12 07:02:12 51°13.636 2°56.02 126.6 -999 29 -999
2012-04-12 07:02:18 51°13.636 2°56.02 126.6 0.1 353 -999
2012-04-12 07:02:23 51°13.636 2°56.02 126.6 0.1 142 -999
2012-04-12 07:02:27 51°13.636 2°56.02 126.6 -999 147 -999
2012-04-12 07:02:32 51°13.636 2°56.02 126.6 -999 2 -999
2012-04-12 07:02:38 51°13.635 2°56.02 126.6 0.1 166 -999
2012-04-12 07:02:42 51°13.636 2°56.02 126.7 -999 191 -999
2012-04-12 07:02:47 51°13.636 2°56.02 126.7 -999 303 -999
2012-04-12 07:02:52 51°13.636 2°56.02 126.7 0.1 348 -999
2012-04-12 07:02:58 51°13.635 2°56.021 126.7 0.1 146 -999
2012-04-12 07:03:03 51°13.635 2°56.021 126.7 0.1 167 -999
2012-04-12 07:03:07 51°13.636 2°56.021 126.7 -999 12 -999
2012-04-12 07:03:12 51°13.636 2°56.021 126.7 0.1 359 -999
2012-04-12 07:03:17 51°13.635 2°56.021 126.7 -999 323 -999
2012-04-12 07:03:23 51°13.636 2°56.021 126.7 0.1 322 -999
2012-04-12 07:03:27 51°13.636 2°56.021 126.7 0.1 348 -999
2012-04-12 07:03:32 51°13.635 2°56.021 126.7 -999 132 -999
2012-04-12 07:03:37 51°13.635 2°56.021 126.7 -999 316 -999
2012-04-12 07:03:43 51°13.635 2°56.021 126.7 -999 163 -999
2012-04-12 07:03:48 51°13.635 2°56.021 126.7 0.1 131 -999
2012-04-12 07:03:52 51°13.636 2°56.021 126.7 0.1 1 -999
2012-04-12 07:03:57 51°13.635 2°56.02 126.7 0.1 346 -999
2012-04-12 07:04:02 51°13.636 2°56.02 126.7 0.2 342 -999
2012-04-12 07:04:08 51°13.636 2°56.02 126.7 0.2 1 -999
2012-04-12 07:04:13 51°13.636 2°56.02 126.7 0.1 357 -999
2012-04-12 07:04:17 51°13.636 2°56.02 126.7 0.1 350 -999
2012-04-12 07:04:22 51°13.636 2°56.02 126.7 -999 351 -999
2012-04-12 07:04:27 51°13.635 2°56.021 126.7 0.2 159 -999
2012-04-12 07:04:33 51°13.635 2°56.021 126.8 0.1 184 -999
2012-04-12 07:04:38 51°13.635 2°56.02 126.8 0.1 189 -999
2012-04-12 07:04:42 51°13.635 2°56.02 126.9 0.1 171 -999
2012-04-12 07:04:47 51°13.636 2°56.02 126.9 -999 315 -999
2012-04-12 07:04:52 51°13.635 2°56.02 126.9 -999 171 -999
2012-04-12 07:04:57 51°13.635 2°56.02 126.9 0.1 165 -999
2012-04-12 07:05:03 51°13.635 2°56.02 126.9 0.1 149 -999
2012-04-12 07:05:07 51°13.635 2°56.02 126.9 0.2 176 -999
2012-04-12 07:05:12 51°13.635 2°56.02 126.9 0.2 181 -999
2012-04-12 07:05:17 51°13.635 2°56.019 126.9 0.1 171 -999
2012-04-12 07:05:23 51°13.636 2°56.019 126.9 -999 110 -999
2012-04-12 07:05:28 51°13.636 2°56.02 126.9 -999 183 -999
2012-04-12 07:05:32 51°13.636 2°56.02 126.9 -999 308 -999
2012-04-12 07:05:38 51°13.636 2°56.02 126.9 0.1 348 -999
2012-04-12 07:05:43 51°13.636 2°56.02 126.9 0.1 147 -999
2012-04-12 07:05:48 51°13.636 2°56.02 126.9 0.1 352 -999
2012-04-12 07:05:52 51°13.636 2°56.02 127 -999 177 -999
2012-04-12 07:05:57 51°13.636 2°56.02 127 0.1 353 -999
2012-04-12 07:06:02 51°13.636 2°56.02 127 -999 78 -999
2012-04-12 07:06:07 51°13.636 2°56.02 127 0.1 169 -999
2012-04-12 07:06:12 51°13.636 2°56.02 127 -999 3 -999
2012-04-12 07:06:17 51°13.636 2°56.02 127 0.1 202 -999
2012-04-12 07:06:22 51°13.636 2°56.02 127 -999 198 -999
2012-04-12 07:06:28 51°13.636 2°56.019 127 -999 242 -999
2012-04-12 07:06:33 51°13.636 2°56.02 126.9 0.1 166 -999
2012-04-12 07:06:37 51°13.636 2°56.02 126.9 -999 11 -999
2012-04-12 07:06:42 51°13.636 2°56.02 126.8 -999 317 -999
2012-04-12 07:06:48 51°13.636 2°56.02 126.8 0.1 321 -999
2012-04-12 07:06:53 51°13.636 2°56.02 126.8 0.1 199 -999
2012-04-12 07:06:57 51°13.635 2°56.019 126.8 0.3 175 -999
2012-04-12 07:07:03 51°13.636 2°56.02 126.8 0.2 164 -999
2012-04-12 07:07:08 51°13.636 2°56.02 126.8 -999 334 -999
2012-04-12 07:07:13 51°13.636 2°56.02 126.8 -999 222 -999
2012-04-12 07:07:17 51°13.636 2°56.02 126.7 0.1 215 -999
2012-04-12 07:07:22 51°13.636 2°56.02 126.7 -999 214 -999
2012-04-12 07:07:27 51°13.636 2°56.02 126.7 -999 140 -999
2012-04-12 07:07:32 51°13.636 2°56.02 126.7 0.1 150 -999
2012-04-12 07:07:38 51°13.636 2°56.02 126.7 0.1 162 -999
2012-04-12 07:07:42 51°13.636 2°56.02 126.7 0.1 164 -999
2012-04-12 07:07:48 51°13.636 2°56.02 126.7 -999 357 -999
2012-04-12 07:07:52 51°13.636 2°56.02 126.7 -999 1 -999
2012-04-12 07:07:58 51°13.636 2°56.02 126.7 -999 12 -999
2012-04-12 07:08:02 51°13.636 2°56.02 126.7 0.1 176 -999
2012-04-12 07:08:07 51°13.636 2°56.02 126.7 -999 212 -999
2012-04-12 07:08:12 51°13.636 2°56.02 126.7 -999 353 -999
2012-04-12 07:08:17 51°13.636 2°56.02 126.7 -999 180 -999
2012-04-12 07:08:23 51°13.636 2°56.02 126.7 0.1 185 -999
2012-04-12 07:08:27 51°13.636 2°56.02 126.7 -999 264 -999
2012-04-12 07:08:32 51°13.636 2°56.02 126.7 0.1 330 -999
2012-04-12 07:08:37 51°13.636 2°56.02 126.7 0.1 350 -999
2012-04-12 07:08:43 51°13.636 2°56.02 126.7 -999 213 -999
2012-04-12 07:08:48 51°13.636 2°56.02 126.7 -999 312 -999
2012-04-12 07:08:52 51°13.636 2°56.02 126.7 -999 358 -999
2012-04-12 07:08:57 51°13.636 2°56.02 126.7 -999 183 -999
2012-04-12 07:09:03 51°13.636 2°56.02 126.7 -999 317 -999
2012-04-12 07:09:08 51°13.636 2°56.02 126.7 0.1 135 -999
2012-04-12 07:09:13 51°13.636 2°56.02 126.7 -999 249 -999
2012-04-12 07:09:17 51°13.636 2°56.02 126.7 0.1 183 -999
2012-04-12 07:09:22 51°13.636 2°56.02 126.7 0.1 168 -999
2012-04-12 07:09:27 51°13.636 2°56.02 126.7 -999 195 -999
2012-04-12 07:09:32 51°13.636 2°56.02 126.7 0.1 354 -999
2012-04-12 07:09:37 51°13.636 2°56.02 126.7 0.1 336 -999
2012-04-12 07:09:42 51°13.636 2°56.02 126.7 0.2 342 -999
2012-04-12 07:09:47 51°13.636 2°56.02 126.7 0.1 348 -999
2012-04-12 07:09:53 51°13.636 2°56.02 126.6 0.1 189 -999
2012-04-12 07:09:58 51°13.636 2°56.02 126.6 -999 335 -999
2012-04-12 07:10:02 51°13.636 2°56.02 126.5 -999 338 -999
2012-04-12 07:10:08 51°13.636 2°56.02 126.4 0.1 344 -999
2012-04-12 07:10:13 51°13.636 2°56.02 126.4 -999 302 -999
2012-04-12 07:10:18 51°13.636 2°56.02 126.3 -999 70 -999
2012-04-12 07:10:22 51°13.636 2°56.02 126.2 0.1 208 -999
2012-04-12 07:10:28 51°13.636 2°56.02 126.1 -999 267 -999
2012-04-12 07:10:33 51°13.636 2°56.02 126 0.1 344 -999
2012-04-12 07:10:38 51°13.636 2°56.02 126 -999 279 -999
2012-04-12 07:10:42 51°13.636 2°56.02 125.9 0.1 4 -999
2012-04-12 07:10:48 51°13.636 2°56.019 125.9 -999 345 -999
2012-04-12 07:10:52 51°13.636 2°56.019 125.9 -999 181 -999
2012-04-12 07:10:57 51°13.636 2°56.019 125.8 0.1 350 -999
2012-04-12 07:11:02 51°13.636 2°56.019 125.8 0.1 357 -999
2012-04-12 07:11:07 51°13.636 2°56.019 125.8 0.1 317 -999
2012-04-12 07:11:12 51°13.636 2°56.019 125.7 -999 192 -999
2012-04-12 07:11:18 51°13.636 2°56.019 125.7 -999 321 -999
2012-04-12 07:11:23 51°13.636 2°56.019 125.7 -999 233 -999
2012-04-12 07:11:27 51°13.636 2°56.019 125.7 -999 212 -999
2012-04-12 07:11:33 51°13.636 2°56.019 125.7 -999 183 -999
2012-04-12 07:11:37 51°13.636 2°56.019 125.6 -999 194 -999
2012-04-12 07:11:43 51°13.636 2°56.019 125.6 -999 261 -999
2012-04-12 07:11:48 51°13.636 2°56.019 125.5 0.1 184 -999
2012-04-12 07:11:52 51°13.636 2°56.019 125.5 0.1 200 -999
2012-04-12 07:11:58 51°13.636 2°56.019 125.4 -999 343 -999
2012-04-12 07:12:03 51°13.636 2°56.019 125.4 -999 164 -999
2012-04-12 07:12:07 51°13.636 2°56.019 125.3 -999 173 -999
2012-04-12 07:12:12 51°13.636 2°56.019 125.3 -999 51 -999
2012-04-12 07:12:17 51°13.636 2°56.019 125.3 0.1 343 -999
2012-04-12 07:12:22 51°13.636 2°56.019 125.3 0.1 9 -999
2012-04-12 07:12:27 51°13.636 2°56.019 125.3 0.1 348 -999
2012-04-12 07:12:32 51°13.636 2°56.019 125.3 -999 276 -999
2012-04-12 07:12:38 51°13.636 2°56.019 125.3 -999 339 -999
2012-04-12 07:12:42 51°13.636 2°56.019 125.3 0.1 185 -999
2012-04-12 07:12:48 51°13.636 2°56.019 125.3 0.1 174 -999
2012-04-12 07:12:53 51°13.636 2°56.019 125.2 0.1 318 -999
2012-04-12 07:12:58 51°13.636 2°56.019 125.2 -999 188 -999
2012-04-12 07:13:02 51°13.636 2°56.019 125.2 0.2 174 -999
2012-04-12 07:13:08 51°13.636 2°56.019 125.2 0.1 8 -999
2012-04-12 07:13:13 51°13.636 2°56.019 125.2 -999 345 -999
2012-04-12 07:13:18 51°13.637 2°56.019 125.2 -999 4 -999
2012-04-12 07:13:22 51°13.637 2°56.019 125.2 0.1 172 -999
2012-04-12 07:13:28 51°13.638 2°56.019 125.2 -999 353 -999
2012-04-12 07:13:33 51°13.638 2°56.019 125.2 -999 190 -999
2012-04-12 07:13:38 51°13.638 2°56.019 125.2 -999 47 -999
2012-04-12 07:13:42 51°13.638 2°56.018 125.2 -999 3 -999
2012-04-12 07:13:47 51°13.638 2°56.019 125.2 -999 97 -999
2012-04-12 07:13:53 51°13.638 2°56.019 125.3 -999 162 -999
2012-04-12 07:13:58 51°13.638 2°56.019 125.7 -999 107 -999
2012-04-12 07:14:02 51°13.638 2°56.018 126.3 -999 112 -999
2012-04-12 07:14:07 51°13.638 2°56.018 126.9 0.1 163 -999
2012-04-12 07:14:12 51°13.638 2°56.018 127.8 0.2 181 -999
2012-04-12 07:14:18 51°13.638 2°56.017 128 0.1 207 -999
2012-04-12 07:14:22 51°13.638 2°56.017 128.5 0.1 21 -999
2012-04-12 07:14:27 51°13.638 2°56.017 128.8 0.1 166 -999
2012-04-12 07:14:32 51°13.638 2°56.018 129.1 0.1 140 -999
2012-04-12 07:14:38 51°13.638 2°56.018 129.1 -999 83 -999
2012-04-12 07:14:42 51°13.638 2°56.018 129.1 -999 -999 -999
2012-04-12 07:14:47 51°13.638 2°56.018 129 0.1 36 -999
2012-04-12 07:14:52 51°13.638 2°56.018 128.8 -999 14 -999
2012-04-12 07:14:57 51°13.638 2°56.018 128.6 -999 60 -999
2012-04-12 07:15:02 51°13.638 2°56.018 128.4 0.1 24 -999
2012-04-12 07:15:08 51°13.638 2°56.018 128.1 0.1 356 -999
2012-04-12 07:15:12 51°13.638 2°56.018 127.9 -999 114 -999
2012-04-12 07:15:17 51°13.637 2°56.018 127.8 0.1 165 -999
2012-04-12 07:15:22 51°13.638 2°56.018 127.6 -999 297 -999
2012-04-12 07:15:28 51°13.637 2°56.018 127.4 0.1 170 -999
2012-04-12 07:15:33 51°13.637 2°56.018 127.4 0.1 179 -999
2012-04-12 07:15:37 51°13.637 2°56.019 127.3 0.1 170 -999
2012-04-12 07:15:42 51°13.637 2°56.019 127.1 0.1 167 -999
2012-04-12 07:15:47 51°13.638 2°56.019 126.4 -999 217 -999
2012-04-12 07:15:53 51°13.638 2°56.019 125.8 0.1 11 -999
2012-04-12 07:15:58 51°13.638 2°56.019 125.2 0.1 210 -999
2012-04-12 07:16:02 51°13.637 2°56.019 124.6 0.1 190 -999
2012-04-12 07:16:07 51°13.637 2°56.019 123.9 -999 22 -999
2012-04-12 07:16:13 51°13.637 2°56.019 123.1 -999 111 -999
2012-04-12 07:16:18 51°13.637 2°56.019 122.2 -999 211 -999
2012-04-12 07:16:22 51°13.637 2°56.019 121.3 0.1 211 -999
2012-04-12 07:16:27 51°13.637 2°56.019 120.4 0.1 199 -999
2012-04-12 07:16:32 51°13.636 2°56.019 119.4 0.2 187 -999
2012-04-12 07:16:38 51°13.636 2°56.019 118.4 0.1 192 -999
2012-04-12 07:16:42 51°13.636 2°56.019 117.7 -999 292 -999
2012-04-12 07:16:47 51°13.636 2°56.019 116.7 0.1 178 -999
2012-04-12 07:16:52 51°13.636 2°56.019 115.6 0.1 201 -999
2012-04-12 07:16:57 51°13.636 2°56.019 114.6 0.1 184 -999
2012-04-12 07:17:02 51°13.636 2°56.019 113.3 -999 259 -999
2012-04-12 07:17:08 51°13.635 2°56.019 112.3 0.2 191 -999
2012-04-12 07:17:12 51°13.635 2°56.019 111.1 0.2 188 -999
2012-04-12 07:17:17 51°13.635 2°56.018 110.1 0.1 246 9.1
2012-04-12 07:17:22 51°13.635 2°56.018 109 0.2 242 -999
2012-04-12 07:17:27 51°13.635 2°56.017 108.3 0.5 270 -999
2012-04-12 07:17:33 51°13.636 2°56.015 107.6 0.8 291 -999
2012-04-12 07:17:37 51°13.636 2°56.013 107.3 1.1 291 9.1
2012-04-12 07:17:42 51°13.637 2°56.011 107.1 1.2 287 -999
2012-04-12 07:17:48 51°13.637 2°56.007 107.1 1.5 286 -999
2012-04-12 07:17:53 51°13.638 2°56.004 107.6 1.7 289 9.2
2012-04-12 07:17:57 51°13.638 2°56.001 108.4 1.9 294 9.2
2012-04-12 07:18:02 51°13.639 2°55.996 108.8 2 290 -999
2012-04-12 07:18:07 51°13.639 2°55.992 109.3 2.2 290 -999
2012-04-12 07:18:13 51°13.64 2°55.986 109.7 2.3 289 -999
2012-04-12 07:18:18 51°13.641 2°55.981 109.8 2.5 290 -999
2012-04-12 07:18:22 51°13.643 2°55.977 109.9 2.5 289 -999
2012-04-12 07:18:27 51°13.644 2°55.971 110 2.7 290 -999
2012-04-12 07:18:33 51°13.646 2°55.964 110.2 2.7 289 -999
2012-04-12 07:18:38 51°13.647 2°55.958 110.3 2.9 290 -999
2012-04-12 07:18:42 51°13.648 2°55.953 110.4 3 290 -999
2012-04-12 07:18:47 51°13.65 2°55.947 110.8 3.1 289 -999
2012-04-12 07:18:52 51°13.651 2°55.94 111.5 3.1 289 -999
2012-04-12 07:18:58 51°13.653 2°55.932 112.3 3.3 291 -999
2012-04-12 07:19:02 51°13.655 2°55.926 113 3.4 292 -999
2012-04-12 07:19:07 51°13.657 2°55.92 113.9 3.4 292 -999
2012-04-12 07:19:12 51°13.659 2°55.912 114.8 3.5 294 -999
2012-04-12 07:19:17 51°13.66 2°55.905 115.8 3.5 294 -999
2012-04-12 07:19:22 51°13.663 2°55.898 116.9 3.7 296 -999
2012-04-12 07:19:28 51°13.665 2°55.889 118.2 3.7 295 -999
2012-04-12 07:19:32 51°13.668 2°55.883 119.1 3.9 298 -999
2012-04-12 07:19:37 51°13.67 2°55.875 120 4 299 -999
2012-04-12 07:19:42 51°13.673 2°55.868 121 4.1 301 -999
2012-04-12 07:19:48 51°13.676 2°55.858 121.7 4.2 300 -999
2012-04-12 07:19:53 51°13.68 2°55.85 122.8 4.3 302 -999
2012-04-12 07:19:57 51°13.682 2°55.844 123.7 4.4 303 -999
2012-04-12 07:20:02 51°13.686 2°55.835 124.7 4.5 304 -999
2012-04-12 07:20:08 51°13.69 2°55.826 125.7 4.5 305 -999
2012-04-12 07:20:13 51°13.693 2°55.818 126.6 4.5 305 -999
2012-04-12 07:20:17 51°13.696 2°55.811 127.6 4.6 306 -999
2012-04-12 07:20:22 51°13.7 2°55.803 128.6 4.6 307 -999
2012-04-12 07:20:27 51°13.704 2°55.795 129.3 4.7 308 -999
2012-04-12 07:20:33 51°13.709 2°55.785 130.4 4.7 309 -999
2012-04-12 07:20:38 51°13.713 2°55.777 131.3 4.7 308 -999
2012-04-12 07:20:42 51°13.716 2°55.771 132.1 4.7 310 -999
2012-04-12 07:20:47 51°13.721 2°55.763 132.7 4.8 312 -999
2012-04-12 07:20:52 51°13.726 2°55.755 133.4 4.9 312 -999
2012-04-12 07:20:58 51°13.731 2°55.746 134.2 4.9 313 -999
2012-04-12 07:21:02 51°13.735 2°55.739 134.8 4.9 314 -999
2012-04-12 07:21:07 51°13.74 2°55.732 135.2 4.9 314 -999
2012-04-12 07:21:12 51°13.744 2°55.724 136 4.8 314 -999
2012-04-12 07:21:18 51°13.75 2°55.715 137 4.8 316 -999
2012-04-12 07:21:22 51°13.753 2°55.71 138 4.7 316 -999
2012-04-12 07:21:27 51°13.758 2°55.702 139 4.8 318 -999
2012-04-12 07:21:32 51°13.763 2°55.695 140.6 4.8 319 -999
2012-04-12 07:21:37 51°13.768 2°55.688 142.1 4.7 320 -999
2012-04-12 07:21:42 51°13.773 2°55.682 143.6 4.7 321 -999
2012-04-12 07:21:48 51°13.779 2°55.674 144.9 4.7 322 -999
2012-04-12 07:21:52 51°13.783 2°55.669 147 4.7 325 -999
2012-04-12 07:21:57 51°13.789 2°55.664 148.9 4.7 326 -999
2012-04-12 07:22:02 51°13.794 2°55.658 150.8 4.7 328 -999
2012-04-12 07:22:08 51°13.801 2°55.652 152 4.8 330 -999
2012-04-12 07:22:13 51°13.807 2°55.647 153.8 4.7 331 -999
2012-04-12 07:22:17 51°13.811 2°55.643 155.9 4.8 333 -999
2012-04-12 07:22:22 51°13.817 2°55.639 157.7 4.7 334 -999
2012-04-12 07:22:27 51°13.823 2°55.634 159.2 4.8 337 -999
2012-04-12 07:22:33 51°13.831 2°55.63 161.5 4.8 339 -999
2012-04-12 07:22:38 51°13.837 2°55.626 163.5 4.8 340 -999
2012-04-12 07:22:42 51°13.842 2°55.624 165.4 4.8 343 -999
2012-04-12 07:22:47 51°13.849 2°55.621 166.9 4.9 345 -999
2012-04-12 07:22:53 51°13.857 2°55.618 168.9 4.9 346 -999
2012-04-12 07:22:58 51°13.863 2°55.616 170.6 4.9 347 -999
2012-04-12 07:23:02 51°13.869 2°55.614 172.1 4.9 348 -999
2012-04-12 07:23:07 51°13.876 2°55.612 173.3 5 351 -999
2012-04-12 07:23:12 51°13.883 2°55.61 174.9 5 352 -999
2012-04-12 07:23:18 51°13.89 2°55.609 177 4.8 354 -999
2012-04-12 07:23:22 51°13.895 2°55.608 179 4.7 355 -999
2012-04-12 07:23:27 51°13.902 2°55.608 181 4.5 358 -999
2012-04-12 07:23:32 51°13.908 2°55.608 183.8 4.4 -999 -999
2012-04-12 07:23:38 51°13.915 2°55.608 187.3 4.2 3 -999
2012-04-12 07:23:42 51°13.919 2°55.609 190.2 4.1 5 -999
2012-04-12 07:23:48 51°13.926 2°55.611 192.4 3.9 9 -999
2012-04-12 07:23:52 51°13.93 2°55.612 195.4 3.7 12 -999
2012-04-12 07:23:57 51°13.935 2°55.614 199 3.7 13 -999
2012-04-12 07:24:02 51°13.94 2°55.616 201.9 3.5 16 -999
2012-04-12 07:24:07 51°13.944 2°55.618 204.3 3.4 18 -999
2012-04-12 07:24:13 51°13.95 2°55.621 207.4 3.4 20 -999
2012-04-12 07:24:17 51°13.953 2°55.623 210.6 3.1 23 -999
2012-04-12 07:24:22 51°13.956 2°55.626 212.8 3 25 -999
2012-04-12 07:24:28 51°13.961 2°55.63 215.4 2.9 28 -999
2012-04-12 07:24:33 51°13.964 2°55.633 217.8 2.9 28 -999
2012-04-12 07:24:37 51°13.966 2°55.635 220.4 2.6 33 -999
2012-04-12 07:24:42 51°13.969 2°55.638 221.8 2.5 33 -999
2012-04-12 07:24:47 51°13.972 2°55.641 223.7 2.3 36 -999
2012-04-12 07:24:53 51°13.975 2°55.644 225.9 2.2 33 -999
2012-04-12 07:24:58 51°13.977 2°55.647 228.7 1.9 37 -999
2012-04-12 07:25:02 51°13.978 2°55.649 230.6 1.6 37 -999
2012-04-12 07:25:07 51°13.979 2°55.65 233.1 0.9 29 -999
2012-04-12 07:25:13 51°13.98 2°55.65 236.1 0.4 2 -999
2012-04-12 07:25:18 51°13.981 2°55.649 240.8 0.6 308 -999
2012-04-12 07:25:22 51°13.981 2°55.647 245.4 0.8 286 11.5
2012-04-12 07:25:27 51°13.981 2°55.645 250.4 1.1 272 11.5
2012-04-12 07:25:32 51°13.981 2°55.642 256.9 1.5 272 11.6
2012-04-12 07:25:38 51°13.981 2°55.638 262.2 1.8 277 11.6
2012-04-12 07:25:42 51°13.982 2°55.634 270.1 2 282 -999
2012-04-12 07:25:47 51°13.983 2°55.629 276.3 2.3 287 11.5
2012-04-12 07:25:52 51°13.984 2°55.624 283.8 2.5 288 -999
2012-04-12 07:25:57 51°13.985 2°55.619 289.4 2.8 295 11.5
2012-04-12 07:26:02 51°13.988 2°55.613 293.6 3.1 300 11.6
2012-04-12 07:26:07 51°13.99 2°55.606 299.2 3.5 304 -999
2012-04-12 07:26:12 51°13.993 2°55.6 303.3 3.7 304 11.6
2012-04-12 07:26:17 51°13.996 2°55.593 306.9 4 309 -999
2012-04-12 07:26:22 51°14 2°55.586 310 4.3 308 11.6
2012-04-12 07:26:27 51°14.004 2°55.578 311.3 4.7 312 -999
2012-04-12 07:26:32 51°14.009 2°55.569 312.6 5.1 312 11.5
2012-04-12 07:26:37 51°14.014 2°55.561 313.6 5.5 315 11.5
2012-04-12 07:26:42 51°14.02 2°55.552 315.1 5.8 315 -999
2012-04-12 07:26:48 51°14.028 2°55.541 316.6 6.3 318 -999
2012-04-12 07:26:53 51°14.035 2°55.531 318.5 6.7 319 -999
2012-04-12 07:26:58 51°14.043 2°55.521 320.9 7.1 322 11.5
2012-04-12 07:27:02 51°14.049 2°55.513 322.5 7.5 323 11.5
2012-04-12 07:27:07 51°14.058 2°55.503 323.8 7.8 323 11.5
2012-04-12 07:27:12 51°14.067 2°55.492 324.3 8 325 11.4
2012-04-12 07:27:17 51°14.076 2°55.482 326 8.4 326 -999
2012-04-12 07:27:22 51°14.086 2°55.471 327.2 8.6 326 -999
2012-04-12 07:27:27 51°14.097 2°55.46 327.2 8.8 327 -999
2012-04-12 07:27:32 51°14.106 2°55.45 327.5 8.9 327 11.3
2012-04-12 07:27:38 51°14.12 2°55.437 329 9.1 330 11.3
2012-04-12 07:27:42 51°14.128 2°55.429 330.3 9.2 328 11.2
2012-04-12 07:27:47 51°14.139 2°55.418 330.4 9.2 329 11.2
2012-04-12 07:27:52 51°14.15 2°55.408 330.6 9.3 329 11.2
2012-04-12 07:27:58 51°14.164 2°55.395 331.1 9.6 330 11.1
2012-04-12 07:28:02 51°14.173 2°55.386 331.4 9.7 330 -999
2012-04-12 07:28:07 51°14.185 2°55.375 331.9 9.7 329 11.2
2012-04-12 07:28:12 51°14.196 2°55.365 331.9 9.8 330 -999
2012-04-12 07:28:17 51°14.208 2°55.354 331.9 9.8 329 -999
2012-04-12 07:28:22 51°14.22 2°55.343 331.9 10 330 -999
2012-04-12 07:28:27 51°14.232 2°55.332 332.5 10 331 11.2
2012-04-12 07:28:32 51°14.244 2°55.321 333 10.1 330 11.2
2012-04-12 07:28:37 51°14.256 2°55.31 333.1 10.1 331 11.2
2012-04-12 07:28:42 51°14.269 2°55.299 333.3 10.2 330 -999
2012-04-12 07:28:47 51°14.281 2°55.287 333.3 10.3 331 11.1
2012-04-12 07:28:52 51°14.293 2°55.276 333.2 10.3 329 -999
2012-04-12 07:28:57 51°14.306 2°55.264 332.3 10.4 330 -999
2012-04-12 07:29:02 51°14.319 2°55.253 332.3 10.5 330 11.1
2012-04-12 07:29:07 51°14.331 2°55.241 332.5 10.5 331 11.1
2012-04-12 07:29:12 51°14.344 2°55.23 333.1 10.6 331 11.1
2012-04-12 07:29:17 51°14.357 2°55.218 333.5 10.7 331 11.2
2012-04-12 07:29:22 51°14.37 2°55.207 333.5 10.8 331 11.1
2012-04-12 07:29:27 51°14.384 2°55.196 333.7 10.9 332 -999
2012-04-12 07:29:32 51°14.397 2°55.184 334.4 10.9 332 11.2
2012-04-12 07:29:38 51°14.413 2°55.171 334.7 10.9 332 -999
2012-04-12 07:29:42 51°14.424 2°55.162 334.6 10.8 332 -999
2012-04-12 07:29:47 51°14.438 2°55.151 334.3 11 332 11.3
2012-04-12 07:29:52 51°14.451 2°55.14 334.5 11 334 11.2
2012-04-12 07:29:57 51°14.465 2°55.129 335.4 11 333 11.2
2012-04-12 07:30:02 51°14.478 2°55.118 335.7 11 332 11.5
2012-04-12 07:30:06 51°14.489 2°55.108 334.6 11.1 331 11.4
2012-04-12 07:30:11 51°14.503 2°55.096 333.9 11.3 332 11.5
2012-04-12 07:30:17 51°14.52 2°55.082 334 11.4 331 11.3
2012-04-12 07:30:21 51°14.531 2°55.072 334.4 11.6 329 11.5
2012-04-12 07:30:26 51°14.544 2°55.058 332.6 11.7 327 11.7
2012-04-12 07:30:31 51°14.558 2°55.043 330.3 11.8 327 12.3
2012-04-12 07:30:36 51°14.571 2°55.028 329.4 11.9 325 12.6
2012-04-12 07:30:41 51°14.585 2°55.013 328.7 12.1 325 12.8
2012-04-12 07:30:46 51°14.599 2°54.997 328.1 12.2 323 12.8
2012-04-12 07:30:50 51°14.61 2°54.984 327.2 12.3 325 12.8
2012-04-12 07:30:55 51°14.624 2°54.968 327.3 12.4 323 12.7
2012-04-12 07:31:00 51°14.637 2°54.951 326.7 12.4 323 12.7
2012-04-12 07:31:05 51°14.651 2°54.934 326.3 12.5 323 12.6
2012-04-12 07:31:10 51°14.665 2°54.918 326.6 12.5 322 12.6
2012-04-12 07:31:14 51°14.676 2°54.904 326 12.6 322 12.5
2012-04-12 07:31:19 51°14.69 2°54.887 326 12.6 323 12.3
2012-04-12 07:31:24 51°14.704 2°54.87 327.1 12.6 323 12.4
2012-04-12 07:31:29 51°14.717 2°54.853 326.4 12.7 322 12.3
2012-04-12 07:31:34 51°14.731 2°54.836 325.5 12.7 322 12.2
2012-04-12 07:31:38 51°14.743 2°54.822 326.2 12.7 323 12.2
2012-04-12 07:31:44 51°14.759 2°54.801 326.2 12.8 322 12.3
2012-04-12 07:31:49 51°14.774 2°54.785 326.2 12.8 324 12.2
2012-04-12 07:31:54 51°14.788 2°54.768 327.2 12.7 324 12.2
2012-04-12 07:31:59 51°14.802 2°54.752 327 12.7 322 12.3
2012-04-12 07:32:04 51°14.816 2°54.735 326.7 12.7 324 12.3
2012-04-12 07:32:09 51°14.83 2°54.717 326.5 12.8 321 12.4
2012-04-12 07:32:14 51°14.844 2°54.7 325.2 12.8 322 12.5
2012-04-12 07:32:18 51°14.855 2°54.685 323.8 12.7 319 12.5
2012-04-12 07:32:24 51°14.871 2°54.663 323.6 12.7 321 12.6
2012-04-12 07:32:29 51°14.885 2°54.645 323.1 12.8 319 12.7
2012-04-12 07:32:34 51°14.898 2°54.627 321.7 12.7 319 12.6
2012-04-12 07:32:39 51°14.911 2°54.608 321.3 12.7 318 12.6
2012-04-12 07:32:44 51°14.924 2°54.589 320.9 12.7 319 12.6
2012-04-12 07:32:49 51°14.938 2°54.571 321.7 12.7 320 12.4
2012-04-12 07:32:54 51°14.951 2°54.553 322 12.6 319 12.4
2012-04-12 07:32:59 51°14.964 2°54.534 321.6 12.7 319 12.4
2012-04-12 07:33:04 51°14.978 2°54.517 322.8 12.7 322 12.3
2012-04-12 07:33:09 51°14.992 2°54.498 323.1 12.7 320 12.2
2012-04-12 07:33:14 51°15.006 2°54.481 322.8 12.7 321 12.4
2012-04-12 07:33:18 51°15.016 2°54.467 323.1 12.6 321 12.3
2012-04-12 07:33:24 51°15.033 2°54.446 323.6 12.7 321 12.1
2012-04-12 07:33:29 51°15.046 2°54.429 323.5 12.5 322 12.1
2012-04-12 07:33:34 51°15.06 2°54.411 323.6 12.6 321 12.2
2012-04-12 07:33:38 51°15.071 2°54.398 323.6 12.6 321 12
2012-04-12 07:33:43 51°15.085 2°54.381 323.9 12.6 322 12
2012-04-12 07:33:49 51°15.101 2°54.36 324.1 12.6 322 12.1
2012-04-12 07:33:54 51°15.115 2°54.344 323.9 12.6 323 12.1
2012-04-12 07:33:58 51°15.126 2°54.331 325.7 12.6 324 12.1
2012-04-12 07:34:03 51°15.14 2°54.315 326.5 12.5 324 12.1
2012-04-12 07:34:09 51°15.157 2°54.295 326.2 12.5 324 12.1
2012-04-12 07:34:14 51°15.171 2°54.279 325.9 12.5 324 12.2
2012-04-12 07:34:18 51°15.182 2°54.266 325.3 12.4 323 12.3
2012-04-12 07:34:24 51°15.198 2°54.246 324.8 12.3 322 12.3
2012-04-12 07:34:29 51°15.212 2°54.229 324.5 12.3 322 12.3
2012-04-12 07:34:34 51°15.225 2°54.212 323.9 12.3 321 12.3
2012-04-12 07:34:38 51°15.236 2°54.198 323.3 12.3 321 12.3
2012-04-12 07:34:44 51°15.253 2°54.179 324.3 12.3 323 12.3
2012-04-12 07:34:48 51°15.264 2°54.166 325.6 12.3 324 12.4
2012-04-12 07:34:53 51°15.277 2°54.15 327.1 12.3 326 12.3
2012-04-12 07:34:58 51°15.292 2°54.135 329 12.2 326 12.3
2012-04-12 07:35:03 51°15.305 2°54.12 329.4 12.1 326 12.3
2012-04-12 07:35:08 51°15.319 2°54.105 329.1 12.1 325 12.3
2012-04-12 07:35:13 51°15.333 2°54.09 328.6 12.2 325 12.4
2012-04-12 07:35:18 51°15.348 2°54.075 328.7 12.2 325 12.4
2012-04-12 07:35:23 51°15.362 2°54.059 328.3 12.3 325 12.4
2012-04-12 07:35:29 51°15.378 2°54.04 328.1 12.3 325 12.4
2012-04-12 07:35:34 51°15.392 2°54.025 327.6 12.2 325 12.4
2012-04-12 07:35:38 51°15.403 2°54.012 328.3 12.2 325 12.4
2012-04-12 07:35:44 51°15.419 2°53.993 328.1 12.1 323 12.4
2012-04-12 07:35:49 51°15.433 2°53.977 327.6 12.2 324 12.5
2012-04-12 07:35:53 51°15.444 2°53.965 328 12.1 325 12.5
2012-04-12 07:35:58 51°15.457 2°53.949 328.2 12.2 324 12.6
2012-04-12 07:36:04 51°15.473 2°53.93 327.6 12 324 12.5
2012-04-12 07:36:09 51°15.487 2°53.914 327.5 12.1 324 12.6
2012-04-12 07:36:14 51°15.501 2°53.899 328.2 12.2 325 12.5
2012-04-12 07:36:18 51°15.513 2°53.886 328.9 12.2 326 12.5
2012-04-12 07:36:23 51°15.526 2°53.871 329.1 12.2 326 12.6
2012-04-12 07:36:29 51°15.543 2°53.853 328.9 12.2 325 12.5
2012-04-12 07:36:34 51°15.557 2°53.837 328.7 12.2 325 12.5
2012-04-12 07:36:38 51°15.568 2°53.825 328.9 12.2 325 12.6
2012-04-12 07:36:42 51°15.579 2°53.812 328.1 12.2 323 12.5
2012-04-12 07:36:48 51°15.595 2°53.793 326.7 12.1 323 12.4
2012-04-12 07:36:53 51°15.608 2°53.777 326.2 12 323 12.5
2012-04-12 07:36:59 51°15.624 2°53.759 326.2 12 324 12.5
2012-04-12 07:37:04 51°15.638 2°53.743 326.8 12 324 12.6
2012-04-12 07:37:09 51°15.651 2°53.729 328 11.8 326 12.7
2012-04-12 07:37:15 51°15.667 2°53.71 328.3 11.7 324 12.4
2012-04-12 07:37:19 51°15.677 2°53.699 326.9 11.4 323 12.6
2012-04-12 07:37:24 51°15.69 2°53.684 326.5 11.2 323 12.6
2012-04-12 07:37:29 51°15.702 2°53.669 326.4 11.2 323 12.6
2012-04-12 07:37:34 51°15.714 2°53.653 326 11 322 12.7
2012-04-12 07:37:39 51°15.726 2°53.638 325.1 10.9 321 12.6
2012-04-12 07:37:44 51°15.738 2°53.623 324.2 10.8 321 12.7
2012-04-12 07:37:49 51°15.749 2°53.609 324 10.6 321 12.8
2012-04-12 07:37:54 51°15.76 2°53.595 324.4 10.2 322 12.9
2012-04-12 07:37:59 51°15.771 2°53.582 325.2 9.8 322 13
2012-04-12 07:38:04 51°15.781 2°53.569 326 9.4 323 12.9
2012-04-12 07:38:09 51°15.791 2°53.558 326.5 9 324 13.2
2012-04-12 07:38:14 51°15.801 2°53.547 326.7 8.6 324 13.2
2012-04-12 07:38:19 51°15.81 2°53.536 326.9 8.3 324 13.1
2012-04-12 07:38:24 51°15.819 2°53.526 327 7.9 324 13.1
2012-04-12 07:38:29 51°15.827 2°53.516 327 7.5 324 13
2012-04-12 07:38:35 51°15.837 2°53.505 327 7.1 324 13.1
2012-04-12 07:38:39 51°15.843 2°53.498 326.8 6.8 324 13.2
2012-04-12 07:38:44 51°15.85 2°53.489 326.7 6.6 324 13.2
2012-04-12 07:38:49 51°15.857 2°53.481 326.5 6.4 324 13.2
2012-04-12 07:38:54 51°15.863 2°53.473 326.1 6 323 13.2
2012-04-12 07:38:59 51°15.87 2°53.466 326 5.8 323 13.3
2012-04-12 07:39:04 51°15.877 2°53.458 326 5.7 324 13.4
2012-04-12 07:39:09 51°15.883 2°53.451 326.4 5.5 325 13.1
2012-04-12 07:39:15 51°15.889 2°53.443 326.8 5.2 325 13
2012-04-12 07:39:19 51°15.894 2°53.438 327.5 5 325 13.3
2012-04-12 07:39:23 51°15.899 2°53.434 328.3 4.9 326 13.3
2012-04-12 07:39:29 51°15.906 2°53.427 329.2 4.7 326 13.3
2012-04-12 07:39:34 51°15.911 2°53.421 330.3 4.6 328 13.2
2012-04-12 07:39:39 51°15.916 2°53.416 331.3 4.5 328 12.9
2012-04-12 07:39:44 51°15.922 2°53.411 332.5 4.5 330 12.9
2012-04-12 07:39:49 51°15.927 2°53.406 333.9 4.4 331 12.9
2012-04-12 07:39:54 51°15.932 2°53.402 335.3 4.3 333 13
2012-04-12 07:39:59 51°15.937 2°53.398 336.9 4.1 334 13.3
2012-04-12 07:40:04 51°15.942 2°53.395 338.4 4 336 13.3
2012-04-12 07:40:09 51°15.948 2°53.391 340 4 337 13.3
2012-04-12 07:40:14 51°15.953 2°53.388 341.4 3.9 339 13
2012-04-12 07:40:19 51°15.958 2°53.385 342.7 4 340 13.1
2012-04-12 07:40:23 51°15.962 2°53.383 343.8 4 341 13.1
2012-04-12 07:40:29 51°15.968 2°53.38 344.8 4 343 13.2
2012-04-12 07:40:34 51°15.973 2°53.377 345.6 3.8 343 13.1
2012-04-12 07:40:39 51°15.978 2°53.375 346 3.9 343 13.1
2012-04-12 07:40:44 51°15.984 2°53.372 346.4 3.9 343 13.1
2012-04-12 07:40:49 51°15.989 2°53.37 346.9 4.1 344 13.1
2012-04-12 07:40:54 51°15.995 2°53.367 347 4.2 343 13.1
2012-04-12 07:40:59 51°16 2°53.364 347 4.2 344 12.9
2012-04-12 07:41:03 51°16.004 2°53.362 346.9 4.3 344 13.2
2012-04-12 07:41:09 51°16.012 2°53.358 346.6 4.7 343 13
2012-04-12 07:41:14 51°16.017 2°53.356 346.3 4.6 343 12.9
2012-04-12 07:41:19 51°16.023 2°53.353 346 4.6 343 13
2012-04-12 07:41:23 51°16.028 2°53.35 346 4.7 343 13
2012-04-12 07:41:29 51°16.035 2°53.346 345.6 4.7 342 13
2012-04-12 07:41:34 51°16.042 2°53.343 345.5 4.9 342 13
2012-04-12 07:41:39 51°16.048 2°53.34 345.1 4.9 341 13.1
2012-04-12 07:41:44 51°16.054 2°53.336 344.8 4.8 341 13.2
2012-04-12 07:41:49 51°16.061 2°53.332 344.3 4.9 340 13.1
2012-04-12 07:41:54 51°16.068 2°53.328 344 5.1 340 13.1
2012-04-12 07:41:59 51°16.075 2°53.324 343.8 5.1 340 13
2012-04-12 07:42:04 51°16.082 2°53.32 343.6 5.3 340 13.1
2012-04-12 07:42:09 51°16.088 2°53.316 343.4 5.3 339 13.1
2012-04-12 07:42:14 51°16.095 2°53.312 343.3 5.4 339 13
2012-04-12 07:42:19 51°16.102 2°53.307 343.2 5.4 338 13.1
2012-04-12 07:42:23 51°16.107 2°53.304 342.1 5.3 338 13.1
2012-04-12 07:42:30 51°16.116 2°53.297 341.2 5.2 336 13
2012-04-12 07:42:34 51°16.122 2°53.294 340.5 5.3 336 13.1
2012-04-12 07:42:39 51°16.129 2°53.289 339.8 5.4 336 13
2012-04-12 07:42:43 51°16.135 2°53.285 339.4 5.5 335 13
2012-04-12 07:42:48 51°16.141 2°53.279 338.8 5.5 334 13
2012-04-12 07:42:53 51°16.148 2°53.274 338.3 5.4 334 13.1
2012-04-12 07:43:00 51°16.157 2°53.267 337.9 5.4 334 13
2012-04-12 07:43:04 51°16.163 2°53.262 337.5 5.4 334 13.1
2012-04-12 07:43:08 51°16.168 2°53.258 337 5.5 333 13.1
2012-04-12 07:43:14 51°16.176 2°53.252 336.5 5.4 333 13.2
2012-04-12 07:43:19 51°16.183 2°53.246 336.2 5.5 333 13.1
2012-04-12 07:43:24 51°16.19 2°53.24 336 5.6 333 13.2
2012-04-12 07:43:28 51°16.195 2°53.236 336 5.5 333 13.2
2012-04-12 07:43:35 51°16.205 2°53.228 336.1 5.5 333 13.1
2012-04-12 07:43:39 51°16.211 2°53.224 336.1 5.7 333 13
2012-04-12 07:43:44 51°16.218 2°53.218 336.5 5.7 334 13.1
2012-04-12 07:43:48 51°16.223 2°53.214 336.8 5.6 334 13.1
2012-04-12 07:43:54 51°16.231 2°53.208 337 5.5 335 13.1
2012-04-12 07:43:59 51°16.238 2°53.203 337.6 5.5 335 13.2
2012-04-12 07:44:04 51°16.245 2°53.198 338 5.6 336 13.2
2012-04-12 07:44:08 51°16.251 2°53.194 338.3 5.6 336 13.2
2012-04-12 07:44:14 51°16.26 2°53.188 338.5 5.6 336 13.2
2012-04-12 07:44:19 51°16.266 2°53.183 338.6 5.4 336 13.2
2012-04-12 07:44:24 51°16.273 2°53.178 338.7 5.4 336 13.1
2012-04-12 07:44:28 51°16.279 2°53.174 338.9 5.4 337 13.2
2012-04-12 07:44:34 51°16.287 2°53.169 339 5.3 337 13.3
2012-04-12 07:44:39 51°16.294 2°53.164 339.2 5.3 337 13.2
2012-04-12 07:44:44 51°16.301 2°53.159 339.4 5.3 337 13.2
2012-04-12 07:44:49 51°16.308 2°53.155 339.7 5.2 338 13.2
2012-04-12 07:44:54 51°16.315 2°53.151 340.1 5.2 338 13.2
2012-04-12 07:44:59 51°16.321 2°53.146 340.4 5.1 338 13.2
2012-04-12 07:45:04 51°16.329 2°53.142 340.6 5.2 339 13.2
2012-04-12 07:45:09 51°16.336 2°53.138 341.1 5.3 339 13.3
2012-04-12 07:45:14 51°16.342 2°53.134 341.3 5.3 340 13.2
2012-04-12 07:45:19 51°16.349 2°53.13 341.5 5.3 340 13.2
2012-04-12 07:45:24 51°16.356 2°53.126 341.9 5.2 340 13.2
2012-04-12 07:45:29 51°16.363 2°53.122 342 5.2 340 13.2
2012-04-12 07:45:34 51°16.37 2°53.118 342.2 5.4 341 13.2
2012-04-12 07:45:39 51°16.377 2°53.114 342.4 5.4 341 13.3
2012-04-12 07:45:44 51°16.384 2°53.11 342.5 5.5 341 13.3
2012-04-12 07:45:48 51°16.39 2°53.107 342.6 5.7 340 13.3
2012-04-12 07:45:54 51°16.399 2°53.101 342.5 5.8 339 13.3
2012-04-12 07:45:59 51°16.407 2°53.097 342.1 6 339 13.1
2012-04-12 07:46:04 51°16.415 2°53.092 341.8 6.2 339 13
2012-04-12 07:46:09 51°16.422 2°53.087 341.5 6.2 339 13.2
2012-04-12 07:46:14 51°16.43 2°53.082 341.4 6.1 338 13.1
2012-04-12 07:46:19 51°16.438 2°53.077 341.3 6.1 338 13.2
2012-04-12 07:46:24 51°16.446 2°53.071 341.2 6.4 338 13.1
2012-04-12 07:46:29 51°16.454 2°53.066 341.1 6.3 338 13
2012-04-12 07:46:34 51°16.463 2°53.061 341.1 6.5 339 13.1
2012-04-12 07:46:39 51°16.471 2°53.056 341.1 6.5 338 13
2012-04-12 07:46:44 51°16.479 2°53.051 341.1 6.5 338 13
2012-04-12 07:46:48 51°16.486 2°53.046 341.2 6.5 339 13
2012-04-12 07:46:54 51°16.496 2°53.04 341.2 6.5 338 12.9
2012-04-12 07:46:59 51°16.504 2°53.034 341.4 6.5 338 12.9
2012-04-12 07:47:04 51°16.513 2°53.029 341.4 6.6 338 12.9
2012-04-12 07:47:09 51°16.522 2°53.023 341.2 6.8 338 13
2012-04-12 07:47:14 51°16.53 2°53.018 340.8 6.8 337 12.9
2012-04-12 07:47:19 51°16.539 2°53.012 340.6 6.7 337 12.9
2012-04-12 07:47:24 51°16.547 2°53.007 340.3 6.7 337 12.9
2012-04-12 07:47:29 51°16.556 2°53 339.9 6.8 336 12.8
2012-04-12 07:47:34 51°16.564 2°52.994 339.5 6.7 336 12.8
2012-04-12 07:47:39 51°16.572 2°52.988 339.2 6.7 335 12.7
2012-04-12 07:47:44 51°16.581 2°52.982 338.7 6.7 335 12.8
2012-04-12 07:47:49 51°16.59 2°52.975 338.4 6.7 335 12.7
2012-04-12 07:47:54 51°16.598 2°52.969 338.3 6.6 334 12.6
2012-04-12 07:47:59 51°16.606 2°52.962 338.1 6.7 334 12.6
2012-04-12 07:48:04 51°16.615 2°52.956 337.9 6.7 334 12.6
2012-04-12 07:48:08 51°16.621 2°52.951 337.5 6.6 334 12.6
2012-04-12 07:48:14 51°16.631 2°52.943 337 6.6 333 12.5
2012-04-12 07:48:19 51°16.639 2°52.937 336.5 6.5 333 12.5
2012-04-12 07:48:24 51°16.647 2°52.93 336.1 6.5 332 12.5
2012-04-12 07:48:28 51°16.653 2°52.925 335.4 6.4 332 12.5
2012-04-12 07:48:34 51°16.662 2°52.917 335.2 6.3 332 12.4
2012-04-12 07:48:39 51°16.669 2°52.91 334.7 6.2 331 12.2
2012-04-12 07:48:44 51°16.677 2°52.904 334.3 6.1 331 12.2
2012-04-12 07:48:49 51°16.684 2°52.897 334 6.2 331 12.1
2012-04-12 07:48:54 51°16.691 2°52.891 333.5 6.1 331 12.2
2012-04-12 07:48:59 51°16.698 2°52.884 333.1 6 330 12
2012-04-12 07:49:04 51°16.706 2°52.877 332.8 6 330 12
2012-04-12 07:49:09 51°16.713 2°52.87 332.5 6.1 330 12
2012-04-12 07:49:14 51°16.72 2°52.863 332.1 6.1 330 11.9
2012-04-12 07:49:19 51°16.727 2°52.857 331.9 6 330 11.7
2012-04-12 07:49:24 51°16.735 2°52.85 331.9 6.1 330 11.6
2012-04-12 07:49:29 51°16.741 2°52.844 331.9 5.8 330 11.5
2012-04-12 07:49:34 51°16.748 2°52.837 332 5.7 330 11.5
2012-04-12 07:49:39 51°16.754 2°52.831 332 5.7 329 11.3
2012-04-12 07:49:44 51°16.762 2°52.824 332 5.8 330 11.1
2012-04-12 07:49:49 51°16.769 2°52.818 332.3 5.8 331 10.9
2012-04-12 07:49:54 51°16.776 2°52.812 332.5 5.9 332 10.9
2012-04-12 07:49:59 51°16.783 2°52.806 332.7 5.8 331 10.9
2012-04-12 07:50:04 51°16.79 2°52.799 332.9 5.8 331 10.9
2012-04-12 07:50:09 51°16.797 2°52.793 332.9 5.8 331 10.7
2012-04-12 07:50:14 51°16.804 2°52.787 332.9 5.9 331 10.7
2012-04-12 07:50:19 51°16.811 2°52.781 332.7 5.9 332 10.8
2012-04-12 07:50:24 51°16.818 2°52.774 332.7 5.8 332 10.7
2012-04-12 07:50:28 51°16.823 2°52.769 332.7 5.8 331 10.7
2012-04-12 07:50:34 51°16.832 2°52.762 332.8 5.8 331 10.8
2012-04-12 07:50:39 51°16.839 2°52.755 333.1 5.8 332 10.6
2012-04-12 07:50:44 51°16.846 2°52.749 333.3 5.8 332 10.5
2012-04-12 07:50:49 51°16.853 2°52.743 333.5 5.8 332 10.4
2012-04-12 07:50:54 51°16.86 2°52.737 334 5.8 332 10.3
2012-04-12 07:50:59 51°16.868 2°52.732 334.4 5.9 333 10.3
2012-04-12 07:51:04 51°16.875 2°52.726 334.9 5.9 334 10.3
2012-04-12 07:51:09 51°16.883 2°52.72 335.4 6 335 10.4
2012-04-12 07:51:14 51°16.89 2°52.715 336.2 6.1 335 10.5
2012-04-12 07:51:19 51°16.898 2°52.709 336.9 6.1 337 10.6
2012-04-12 07:51:24 51°16.906 2°52.704 338 6.1 337 10.7
2012-04-12 07:51:28 51°16.912 2°52.7 338.5 6.1 338 10.5
2012-04-12 07:51:34 51°16.921 2°52.694 339 5.9 338 10.6
2012-04-12 07:51:39 51°16.929 2°52.689 339.4 6.1 339 10.7
2012-04-12 07:51:44 51°16.937 2°52.684 339.8 6.1 339 10.7
2012-04-12 07:51:49 51°16.945 2°52.68 339.8 6.2 339 10.9
2012-04-12 07:51:54 51°16.953 2°52.676 339.8 6.2 339 10.9
2012-04-12 07:51:59 51°16.96 2°52.671 339.8 6.1 338 10.8
2012-04-12 07:52:04 51°16.968 2°52.666 339.7 6.1 339 10.8
2012-04-12 07:52:09 51°16.976 2°52.661 339.4 6.2 339 11
2012-04-12 07:52:14 51°16.984 2°52.656 339 6.2 338 10.9
2012-04-12 07:52:19 51°16.992 2°52.65 338.8 6.2 338 11
2012-04-12 07:52:24 51°17 2°52.645 338.3 6.1 338 10.9
2012-04-12 07:52:28 51°17.007 2°52.641 337.9 6.3 338 11
2012-04-12 07:52:34 51°17.016 2°52.634 337.7 6.3 337 10.8
2012-04-12 07:52:39 51°17.024 2°52.629 337.6 6.2 337 10.8
2012-04-12 07:52:44 51°17.032 2°52.624 337.4 6.3 337 10.8
2012-04-12 07:52:48 51°17.038 2°52.62 337.2 6.2 337 10.8
2012-04-12 07:52:54 51°17.048 2°52.613 337 6.2 337 10.6
2012-04-12 07:52:59 51°17.056 2°52.608 336.5 6.3 337 10.7
2012-04-12 07:53:04 51°17.064 2°52.602 336.3 6.2 336 10.6
2012-04-12 07:53:08 51°17.07 2°52.598 336 6.1 336 10.6
2012-04-12 07:53:14 51°17.079 2°52.591 335.6 6.2 335 10.6
2012-04-12 07:53:19 51°17.087 2°52.585 335.3 6 335 10.7
2012-04-12 07:53:24 51°17.095 2°52.579 334.7 6.2 335 10.6
2012-04-12 07:53:29 51°17.103 2°52.573 334.2 6.3 335 10.6
2012-04-12 07:53:34 51°17.11 2°52.567 333.8 6.2 334 10.6
2012-04-12 07:53:39 51°17.118 2°52.561 333.2 6.1 333 10.6
2012-04-12 07:53:44 51°17.126 2°52.555 332.8 6.2 333 10.7
2012-04-12 07:53:49 51°17.133 2°52.548 332.3 6.2 332 10.8
2012-04-12 07:53:54 51°17.141 2°52.542 331.8 6.2 332 10.7
2012-04-12 07:53:59 51°17.149 2°52.536 331.1 6.2 331 10.6
2012-04-12 07:54:04 51°17.156 2°52.529 330.9 6.1 330 10.8
2012-04-12 07:54:09 51°17.163 2°52.522 330.8 6.2 331 10.8
2012-04-12 07:54:14 51°17.171 2°52.516 330.8 6.2 331 10.8
2012-04-12 07:54:19 51°17.179 2°52.509 330.9 6.2 331 10.8
2012-04-12 07:54:24 51°17.186 2°52.503 331.1 6.2 331 10.8
2012-04-12 07:54:28 51°17.192 2°52.497 331.4 6.1 331 10.9
2012-04-12 07:54:34 51°17.202 2°52.489 331.8 6.3 331 11
2012-04-12 07:54:39 51°17.209 2°52.483 332.1 6.3 332 10.9
2012-04-12 07:54:44 51°17.217 2°52.476 332.4 6.3 332 11
2012-04-12 07:54:48 51°17.223 2°52.471 332.5 6.3 332 10.9
2012-04-12 07:54:54 51°17.232 2°52.463 332.6 6.3 332 11.1
2012-04-12 07:54:59 51°17.24 2°52.456 332.9 6.3 332 11
2012-04-12 07:55:04 51°17.247 2°52.45 332.9 6.2 332 10.9
2012-04-12 07:55:08 51°17.253 2°52.445 333 6.1 332 11.1
2012-04-12 07:55:14 51°17.263 2°52.437 333.4 6.4 334 11.2
2012-04-12 07:55:19 51°17.27 2°52.431 334.7 6.2 335 11.2
2012-04-12 07:55:24 51°17.278 2°52.425 336.6 6.2 337 11.2
2012-04-12 07:55:29 51°17.286 2°52.42 338.9 6.1 339 11.2
2012-04-12 07:55:34 51°17.295 2°52.416 341.2 6.2 341 11.2
2012-04-12 07:55:39 51°17.303 2°52.412 343.7 6.2 343 11.3
2012-04-12 07:55:44 51°17.311 2°52.409 346.3 6.2 345 11.3
2012-04-12 07:55:49 51°17.319 2°52.406 348.2 6.1 347 11.2
2012-04-12 07:55:54 51°17.328 2°52.403 349.9 6.2 348 11.4
2012-04-12 07:55:59 51°17.337 2°52.401 351.3 6.2 350 11.4
2012-04-12 07:56:04 51°17.345 2°52.398 352.4 6.2 350 11.1
2012-04-12 07:56:08 51°17.352 2°52.397 353.3 6.1 351 11.2
2012-04-12 07:56:14 51°17.362 2°52.394 353.8 6.2 350 11.4
2012-04-12 07:56:19 51°17.371 2°52.392 354.1 6.4 351 11.5
2012-04-12 07:56:24 51°17.379 2°52.39 354.3 6.2 351 11.3
2012-04-12 07:56:29 51°17.387 2°52.388 354.7 6.1 352 11.2
2012-04-12 07:56:34 51°17.396 2°52.385 355.3 6.2 352 11.3
2012-04-12 07:56:39 51°17.405 2°52.383 355.5 6.2 352 11.3
2012-04-12 07:56:44 51°17.413 2°52.381 355.7 6.2 352 11.4
2012-04-12 07:56:48 51°17.42 2°52.38 356.1 6.2 352 11.3
2012-04-12 07:56:54 51°17.43 2°52.378 356.5 6.2 353 11.2
2012-04-12 07:56:59 51°17.439 2°52.376 356.7 6.2 352 11.2
2012-04-12 07:57:04 51°17.448 2°52.374 356.9 6.3 353 11.4
2012-04-12 07:57:08 51°17.454 2°52.373 357.1 6.3 353 11.4
2012-04-12 07:57:14 51°17.465 2°52.371 357.3 6.3 353 11.4
2012-04-12 07:57:19 51°17.473 2°52.369 357.4 6.3 353 11.4
2012-04-12 07:57:24 51°17.482 2°52.367 357.5 6.2 353 11.4
2012-04-12 07:57:29 51°17.49 2°52.366 357.5 6.2 353 11.2
2012-04-12 07:57:34 51°17.499 2°52.364 357.6 6.2 354 11.2
2012-04-12 07:57:39 51°17.507 2°52.363 357.7 6.3 354 11.3
2012-04-12 07:57:44 51°17.516 2°52.361 357.9 6.2 354 11.3
2012-04-12 07:57:48 51°17.522 2°52.36 358.1 6.1 354 11.3
2012-04-12 07:57:54 51°17.532 2°52.358 358.2 6 354 11.2
2012-04-12 07:57:59 51°17.541 2°52.357 358.4 6.2 354 11.5
2012-04-12 07:58:04 51°17.55 2°52.356 358.5 6.2 355 11.5
2012-04-12 07:58:09 51°17.558 2°52.354 358.5 6.1 354 11.2
2012-04-12 07:58:14 51°17.567 2°52.353 358.3 6.1 354 11.2
2012-04-12 07:58:19 51°17.575 2°52.351 358 6.2 354 11.3
2012-04-12 07:58:24 51°17.584 2°52.349 357.9 6.3 353 11.4
2012-04-12 07:58:29 51°17.592 2°52.348 357.7 6.1 353 11.4
2012-04-12 07:58:34 51°17.601 2°52.346 357.5 6.1 353 11.2
2012-04-12 07:58:39 51°17.609 2°52.344 357.5 6.1 353 11.3
2012-04-12 07:58:44 51°17.618 2°52.342 357.5 6.1 353 11.3
2012-04-12 07:58:49 51°17.626 2°52.341 357.5 6.1 353 11.3
2012-04-12 07:58:54 51°17.635 2°52.339 357.5 6.2 352 11.2
2012-04-12 07:58:59 51°17.643 2°52.337 357.7 6.3 353 11.2
2012-04-12 07:59:04 51°17.652 2°52.335 357.9 6.4 351 11.2
2012-04-12 07:59:09 51°17.66 2°52.334 357.9 6.3 353 11.2
2012-04-12 07:59:14 51°17.668 2°52.332 357.9 6.1 353 11.2
2012-04-12 07:59:19 51°17.677 2°52.33 357.9 6.2 352 11.2
2012-04-12 07:59:24 51°17.685 2°52.328 357.7 6.1 351 11.2
2012-04-12 07:59:29 51°17.693 2°52.326 357.7 6.1 352 11.2
2012-04-12 07:59:34 51°17.702 2°52.324 357.8 6.3 352 11.1
2012-04-12 07:59:39 51°17.71 2°52.323 357.9 6.1 352 11.1
2012-04-12 07:59:44 51°17.718 2°52.321 358.1 5.9 353 11.2
2012-04-12 07:59:49 51°17.727 2°52.32 358.4 6 353 11.1
2012-04-12 07:59:54 51°17.735 2°52.318 358.7 6.1 354 11.3
2012-04-12 07:59:59 51°17.743 2°52.317 359.3 6.1 354 11.2
2012-04-12 08:00:04 51°17.752 2°52.315 359.7 6.1 355 11.1
2012-04-12 08:00:08 51°17.759 2°52.314 0.2 6 355 11.2
2012-04-12 08:00:14 51°17.769 2°52.313 0.6 6 356 11.3
2012-04-12 08:00:19 51°17.777 2°52.312 1 6 356 11.1
2012-04-12 08:00:24 51°17.785 2°52.311 1.5 5.9 356 11.1
2012-04-12 08:00:29 51°17.794 2°52.311 1.5 6.1 357 11.1
2012-04-12 08:00:34 51°17.802 2°52.31 1.9 6.1 357 11.3
2012-04-12 08:00:39 51°17.811 2°52.31 2.4 6 358 11.3
2012-04-12 08:00:44 51°17.819 2°52.309 3 6.1 358 11.4
2012-04-12 08:00:49 51°17.828 2°52.308 3.1 6.2 358 11.3
2012-04-12 08:00:54 51°17.836 2°52.308 3.2 6.1 357 11.3
2012-04-12 08:00:59 51°17.844 2°52.308 3.1 6 359 11.3
2012-04-12 08:01:04 51°17.853 2°52.308 3.1 6.1 358 11.2
2012-04-12 08:01:09 51°17.861 2°52.307 3 6 359 11.3
2012-04-12 08:01:14 51°17.87 2°52.307 3 6.1 357 11.3
2012-04-12 08:01:19 51°17.879 2°52.306 2.8 6.2 358 11.4
2012-04-12 08:01:24 51°17.887 2°52.305 2.8 6.1 357 11.3
2012-04-12 08:01:28 51°17.894 2°52.305 2.6 6.1 358 11.3
2012-04-12 08:01:34 51°17.904 2°52.304 2 6.2 356 11.2
2012-04-12 08:01:39 51°17.913 2°52.303 1.5 6.1 357 11.4
2012-04-12 08:01:44 51°17.922 2°52.302 0.8 6.3 355 11.4
2012-04-12 08:01:48 51°17.928 2°52.301 0.3 6.2 356 11.4
2012-04-12 08:01:54 51°17.938 2°52.299 359.8 6.1 354 11.4
2012-04-12 08:01:59 51°17.946 2°52.298 359.4 5.9 354 11.4
2012-04-12 08:02:04 51°17.955 2°52.296 358.9 6 353 11.4
2012-04-12 08:02:08 51°17.961 2°52.295 358.4 6 354 11.5
2012-04-12 08:02:14 51°17.972 2°52.292 357.9 6 351 11.4
2012-04-12 08:02:19 51°17.98 2°52.29 357.3 6.1 351 11.4
2012-04-12 08:02:24 51°17.989 2°52.289 356.9 6.1 352 11.4
2012-04-12 08:02:29 51°17.997 2°52.287 356.5 6.1 351 11.4
2012-04-12 08:02:34 51°18.005 2°52.284 356 6.1 351 11.5
2012-04-12 08:02:39 51°18.014 2°52.282 355.9 6.1 351 11.5
2012-04-12 08:02:44 51°18.022 2°52.28 355.7 6 351 11.6
2012-04-12 08:02:49 51°18.031 2°52.278 355.8 6.2 351 11.5
2012-04-12 08:02:54 51°18.039 2°52.276 356 6.1 352 11.5
2012-04-12 08:02:59 51°18.047 2°52.273 356.2 6.1 351 11.7
2012-04-12 08:03:04 51°18.056 2°52.271 356.5 6.1 351 11.6
2012-04-12 08:03:09 51°18.064 2°52.269 356.8 6.2 351 11.8
2012-04-12 08:03:14 51°18.073 2°52.267 356.7 6.2 351 11.8
2012-04-12 08:03:19 51°18.081 2°52.266 356.8 6.1 351 11.7
2012-04-12 08:03:24 51°18.089 2°52.264 356.9 6.1 352 11.8
2012-04-12 08:03:29 51°18.098 2°52.262 357.2 6.1 352 11.7
2012-04-12 08:03:34 51°18.106 2°52.26 357.1 6.2 352 11.8
2012-04-12 08:03:39 51°18.115 2°52.257 357.2 6.1 351 11.8
2012-04-12 08:03:44 51°18.123 2°52.256 357.2 6.2 352 11.9
2012-04-12 08:03:48 51°18.13 2°52.254 357.4 6.2 352 11.9
2012-04-12 08:03:54 51°18.14 2°52.252 357.6 6.2 353 11.9
2012-04-12 08:03:59 51°18.149 2°52.25 357.9 6.3 352 11.8
2012-04-12 08:04:04 51°18.158 2°52.249 358.3 6.4 353 11.9
2012-04-12 08:04:08 51°18.164 2°52.248 358.4 6.2 353 12
2012-04-12 08:04:14 51°18.174 2°52.245 358.4 6.2 353 12
2012-04-12 08:04:19 51°18.183 2°52.244 358.7 6.1 353 12.1
2012-04-12 08:04:24 51°18.191 2°52.242 358.8 6.2 354 12.1
2012-04-12 08:04:29 51°18.2 2°52.241 359 6.2 353 12
2012-04-12 08:04:34 51°18.208 2°52.24 359 6 354 12.1
2012-04-12 08:04:39 51°18.216 2°52.238 359 6.1 354 12
2012-04-12 08:04:44 51°18.225 2°52.236 359 6.1 354 12
2012-04-12 08:04:49 51°18.234 2°52.235 359.1 6.1 354 12.3
2012-04-12 08:04:54 51°18.242 2°52.234 359.2 6.1 354 12.4
2012-04-12 08:04:59 51°18.25 2°52.233 359.4 6.1 355 12.2
2012-04-12 08:05:04 51°18.259 2°52.231 359.6 6.1 354 12.3
2012-04-12 08:05:09 51°18.268 2°52.23 359.9 6.2 355 12.2
2012-04-12 08:05:14 51°18.276 2°52.228 0.2 6.2 354 12.2
2012-04-12 08:05:19 51°18.285 2°52.227 0.4 6.2 355 12.2
2012-04-12 08:05:24 51°18.293 2°52.226 0.8 6.2 355 12.1
2012-04-12 08:05:29 51°18.301 2°52.225 1.1 6.1 356 12.3
2012-04-12 08:05:34 51°18.31 2°52.224 1.4 6.2 356 12.2
2012-04-12 08:05:39 51°18.318 2°52.224 1.7 6.2 357 12.1
2012-04-12 08:05:44 51°18.327 2°52.223 2.3 6.3 356 12.2
2012-04-12 08:05:48 51°18.334 2°52.222 2.9 6.2 357 12.1
2012-04-12 08:05:54 51°18.344 2°52.222 3.1 6.1 358 12.2
2012-04-12 08:05:59 51°18.352 2°52.221 3.4 6 358 12.1
2012-04-12 08:06:04 51°18.361 2°52.221 3.6 6.1 359 12.1
2012-04-12 08:06:08 51°18.368 2°52.22 3.6 6.1 357 12.3
2012-04-12 08:06:14 51°18.378 2°52.22 3.3 6.1 357 12.3
2012-04-12 08:06:19 51°18.387 2°52.218 3 6.2 357 12.2
2012-04-12 08:06:24 51°18.395 2°52.217 2.5 6.1 356 12.2
2012-04-12 08:06:29 51°18.404 2°52.217 2.2 6.2 355 12.1
2012-04-12 08:06:34 51°18.412 2°52.216 1.7 6.3 356 12.2
2012-04-12 08:06:39 51°18.421 2°52.215 1.5 6.1 356 12.2
2012-04-12 08:06:44 51°18.429 2°52.214 1.3 6.2 356 12.2
2012-04-12 08:06:49 51°18.438 2°52.213 1.2 6.2 355 12.2
2012-04-12 08:06:54 51°18.446 2°52.212 1 6 356 12.3
2012-04-12 08:06:59 51°18.455 2°52.21 0.8 6.1 355 12.1
2012-04-12 08:07:04 51°18.463 2°52.21 0.6 6.1 355 12.4
2012-04-12 08:07:08 51°18.47 2°52.208 0.1 6.2 354 12.2
2012-04-12 08:07:14 51°18.48 2°52.207 359.7 6.2 354 12.2
2012-04-12 08:07:19 51°18.489 2°52.205 359.4 6.2 353 12.3
2012-04-12 08:07:24 51°18.497 2°52.203 358.7 6.1 353 12.1
2012-04-12 08:07:29 51°18.506 2°52.202 358.5 6.3 353 12.4
2012-04-12 08:07:34 51°18.514 2°52.2 358.1 6.2 353 12.4
2012-04-12 08:07:39 51°18.522 2°52.198 357.9 6.1 352 12.3
2012-04-12 08:07:44 51°18.531 2°52.196 357.5 6.1 352 12.5
2012-04-12 08:07:49 51°18.539 2°52.194 357.2 6.2 351 12.3
2012-04-12 08:07:54 51°18.548 2°52.192 356.8 6.2 351 12.4
2012-04-12 08:07:59 51°18.556 2°52.19 356.4 6.1 351 12.5
2012-04-12 08:08:04 51°18.564 2°52.188 356.1 6.1 351 12.5
2012-04-12 08:08:08 51°18.571 2°52.186 355.8 6.1 350 12.6
2012-04-12 08:08:14 51°18.581 2°52.184 355.7 6.3 351 12.6
2012-04-12 08:08:19 51°18.59 2°52.181 355.7 6.2 350 12.6
2012-04-12 08:08:24 51°18.598 2°52.179 355.8 6.1 351 12.5
2012-04-12 08:08:29 51°18.606 2°52.177 355.8 6.2 350 12.6
2012-04-12 08:08:34 51°18.615 2°52.175 355.9 6.3 351 12.8
2012-04-12 08:08:39 51°18.623 2°52.173 356.1 6.2 351 12.8
2012-04-12 08:08:44 51°18.632 2°52.17 356.3 6.2 351 12.9
2012-04-12 08:08:49 51°18.64 2°52.169 356.5 6.1 351 12.8
2012-04-12 08:08:54 51°18.648 2°52.167 356.8 6 352 12.9
2012-04-12 08:08:59 51°18.657 2°52.165 357.1 6.1 351 12.9
2012-04-12 08:09:04 51°18.666 2°52.163 357.3 6.2 352 12.9
2012-04-12 08:09:08 51°18.673 2°52.161 357.5 6.3 351 13
2012-04-12 08:09:14 51°18.682 2°52.159 357.8 6.2 353 13.1
2012-04-12 08:09:19 51°18.691 2°52.158 358.1 6.2 353 13.2
2012-04-12 08:09:24 51°18.699 2°52.156 358.6 6.2 354 13.2
2012-04-12 08:09:29 51°18.707 2°52.155 358.8 6.1 353 13.2
2012-04-12 08:09:34 51°18.716 2°52.153 359 6.1 354 13.2
2012-04-12 08:09:39 51°18.724 2°52.152 359.2 6.1 354 13.2
2012-04-12 08:09:44 51°18.733 2°52.15 359.3 6.1 355 13.4
2012-04-12 08:09:49 51°18.742 2°52.149 359.6 6.3 354 13.4
2012-04-12 08:09:54 51°18.75 2°52.148 359.8 6.3 355 13.4
2012-04-12 08:09:59 51°18.759 2°52.146 0.3 6.2 356 13.4